Weather History for Kansas City International, MO

Change the Weather History Date:

Saturday, May 3, 2014

  Actual Average Record
Temperature  
Mean Temperature 64 °F 61 °F  
Max Temperature 77 °F 71 °F 90 °F (1895)
Min Temperature 50 °F 50 °F 30 °F (1976)
Degree Days  
Heating Degree Days 1 6  
Month to date heating degree days 28 18  
Since 1 July heating degree days 5703 5038  
Cooling Degree Days 0 1  
Month to date cooling degree days 0 3  
Year to date cooling degree days 9 31  
Growing Degree Days 14 (Base 50)    
Moisture  
Dew Point 40 °F    
Average Humidity 42    
Maximum Humidity 57    
Minimum Humidity 27    
Precipitation  
Precipitation 0.00 in 0.17 in 2.04 in (1987)
Month to date precipitation T 0.50  
Year to date precipitation 7.29 9.10  
Snow  
Snow 0.00 in 0.00 in 1.70 in (1907)
Month to date snowfall 0.0 0.0  
Since 1 July snowfall 26.1 18.8  
Snow Depth 0.00 in    
Sea Level Pressure  
Sea Level Pressure 29.89 in    
Wind  
Wind Speed 5 mph (NNE)    
Max Wind Speed 13 mph    
Max Gust Speed 14 mph    
Visibility 10 miles    
Events      
T = Trace of Precipitation, MM = Missing Value Source: NWS Daily Summary

Daily Weather History Graph

Daily Weather History Graph

Search for Another Location

Airport:

Trip Planner

Search our weather history database for the weather conditions in past years. The results will help you decide how hot, cold, wet, or windy it might be!

Date:

Astronomy

May. 03, 2014 Rise Set
Actual Time 6:17 AM CDT 8:14 PM CDT
Civil Twilight 5:48 AM CDT 8:43 PM CDT
Nautical Twilight 5:13 AM CDT 9:19 PM CDT
Astronomical Twilight 4:35 AM CDT 9:57 PM CDT
Moon 9:48 AM CDT (5/3) No Moon Set
Length of Visible Light 14h 54m
Length of Day
13h 56m
Waxing Crescent, 20% of the Moon is Illuminated
May 3
Waxing Crescent
May 6
First Quarter
May 14
Full
May 21
Last Quarter
May 28
New

Hourly Weather History & Observations

Time (CDT) Temp. Dew Point Humidity Pressure Visibility Wind Dir Wind Speed Gust Speed Precip Events Conditions
12:53 AM 59.0 °F 35.1 °F 41% 29.83 in 10.0 mi WNW 6.9 mph - N/A   Mostly Cloudy
1:53 AM 60.1 °F 35.1 °F 39% 29.83 in 10.0 mi WNW 4.6 mph - N/A   Scattered Clouds
2:53 AM 59.0 °F 35.1 °F 41% 29.84 in 10.0 mi WNW 4.6 mph - N/A   Mostly Cloudy
3:53 AM 55.0 °F 37.0 °F 51% 29.87 in 10.0 mi NNW 8.1 mph - N/A   Clear
4:53 AM 53.6 °F 37.4 °F 54% 29.89 in 10.0 mi NNW 3.5 mph - N/A   Clear
5:53 AM 53.1 °F 37.9 °F 57% 29.89 in 10.0 mi NNW 4.6 mph - N/A   Partly Cloudy
6:53 AM 54.0 °F 37.9 °F 55% 29.90 in 10.0 mi North 4.6 mph - N/A   Scattered Clouds
7:53 AM 57.0 °F 42.1 °F 57% 29.91 in 10.0 mi Calm Calm - N/A   Scattered Clouds
8:53 AM 63.0 °F 39.9 °F 43% 29.92 in 10.0 mi Calm Calm - N/A   Scattered Clouds
9:53 AM 64.9 °F 39.0 °F 39% 29.92 in 10.0 mi East 3.5 mph - N/A   Scattered Clouds
10:53 AM 66.9 °F 37.0 °F 33% 29.94 in 10.0 mi Variable 3.5 mph - N/A   Scattered Clouds
11:53 AM 68.0 °F 36.0 °F 31% 29.94 in 10.0 mi Calm Calm - N/A   Mostly Cloudy
12:53 PM 70.0 °F 37.9 °F 31% 29.92 in 10.0 mi Calm Calm - N/A   Scattered Clouds
1:53 PM 71.1 °F 37.9 °F 30% 29.91 in 10.0 mi Calm Calm - N/A   Scattered Clouds
2:53 PM 73.0 °F 39.0 °F 29% 29.90 in 10.0 mi ESE 3.5 mph - N/A   Mostly Cloudy
3:53 PM 75.9 °F 39.9 °F 27% 29.88 in 10.0 mi East 5.8 mph - N/A   Mostly Cloudy
4:53 PM 75.0 °F 44.1 °F 33% 29.89 in 10.0 mi Variable 5.8 mph - N/A   Mostly Cloudy
5:53 PM 75.9 °F 42.1 °F 30% 29.88 in 10.0 mi Variable 3.5 mph - N/A   Mostly Cloudy
6:53 PM 73.9 °F 43.0 °F 33% 29.87 in 10.0 mi East 9.2 mph - N/A   Mostly Cloudy
7:53 PM 69.1 °F 44.1 °F 40% 29.87 in 10.0 mi ENE 8.1 mph - N/A   Partly Cloudy
8:53 PM 66.0 °F 44.1 °F 45% 29.88 in 10.0 mi NE 8.1 mph - N/A   Clear
9:53 PM 64.0 °F 43.0 °F 46% 29.89 in 10.0 mi ENE 8.1 mph - N/A   Clear
10:53 PM 62.1 °F 43.0 °F 50% 29.90 in 10.0 mi ENE 6.9 mph - N/A   Clear
11:53 PM 60.1 °F 44.1 °F 55% 29.90 in 10.0 mi ENE 6.9 mph - N/A   Clear